Weather Roundup
Issued by NWS Springfield, MO

Home | Current Version | Previous Version | Text Only | Print | Product List | Glossary On
Versions: 1 2 3 4 5 6 7 8 9 10 11 12 13 14 15 16 17 18 19 20 21 22 23 24 25 26 27 28 29 30 31 32 33 34 35 36 37 38 39 40 41 42 43 44 45 46 47 48 49 50
000
NZUS99 KSGF 281707
HRRSGF

HOURLY WEATHER
NATIONAL WEATHER SERVICE SPRINGFIELD MO
1200 PM CDT MON JUL 28 2014

......SGF CWA......

CITY           SKY/WX    TMP DP  RH WIND       PRES   REMARKS
SPRINGFIELD    SUNNY     77  56  48 NW5       30.20S
JOPLIN         SUNNY     80  57  45 N10       30.23S
WEST PLAINS    SUNNY     79  59  50 N7        30.17S
ROLLA          MOSUNNY   77  58  51 N8        30.15R
OSAGE BEACH    PTSUNNY   77  57  50 NW8       30.18R
BRANSON        MOSUNNY   81  57  44 N9        30.21F

......SURROUNDING SGF CWA......

CITY           SKY/WX    TMP DP  RH WIND       PRES   REMARKS
CHANUTE        SUNNY     79  60  52 NW13G18   30.26S
PARSONS        SUNNY     80  59  48 N6        30.25F
COFFEYVILLE    SUNNY     80  61  52 N14G21    30.24S
EMPORIA        SUNNY     76  57  51 NW9G20    30.27F
GROVE OK       SUNNY     81  61  50 NW9       30.24S
ROGERS AR      SUNNY     77  57  50 N8        30.23S
SILOAM SPRINGS SUNNY     79  57  47 N10       30.24S
HARRISON AR    SUNNY     77  58  51 N9        30.20F
NEAR YELLVILLE MOSUNNY   79  57  47 NE8       30.17F

......KANSAS AND MISSOURI......

CITY           SKY/WX    TMP DP  RH WIND       PRES   REMARKS
KANSAS CTY INT PTSUNNY   75  61  61 N8        30.24R
DOWNTOWN KC    PTSUNNY   76  62  62 VRB7      30.22F
COLUMBIA       PTSUNNY   78  60  53 N9G18     30.17S
SEDALIA        PTSUNNY   76  62  62 N12       30.20S
ST JOSEPH      PTSUNNY   71  62  73 NW8       30.25R
ST LOUIS       PTSUNNY   75  63  66 N8        30.12S
SPIRIT OF STL  PTSUNNY   76  59  55 N10       30.11S
KIRKSVILLE     PTSUNNY   72  57  59 N12       30.21S
WICHITA        MOSUNNY   80  59  48 NW8       30.29F
TOPEKA         MOSUNNY   78  57  48 N12       30.26S
OLATHE         MOSUNNY   75  59  57 N8        30.23S

......TENNESSEE......

CITY           SKY/WX    TMP DP  RH WIND       PRES   REMARKS
MEMPHIS        MOSUNNY   83  63  50 NW14      30.09S
NASHVILLE      MOSUNNY   79  60  52 W12       30.02F

......ARKANSAS.......

CITY           SKY/WX    TMP DP  RH WIND       PRES   REMARKS
FAYETTEVILLE   SUNNY     79  58  48 VRB5      30.21F
FT SMITH       SUNNY     84  59  42 VRB5      30.17F
LITTLE ROCK    MOSUNNY   85  60  42 N7        30.13S

......OKLAHOMA.......

CITY           SKY/WX    TMP DP  RH WIND       PRES   REMARKS
TULSA          MOSUNNY   83  59  44 NE5       30.21F
PONCA CITY     SUNNY     82  61  48 NE5       30.27S
MCALESTER      MOSUNNY   84  61  45 NE7       30.21S
OKLAHOMA CITY  CLOUDY    82  60  47 NE7       30.28R

......IOWA............

CITY           SKY/WX    TMP DP  RH WIND       PRES   REMARKS
DES MOINES     PTSUNNY   75  53  46 E6        30.22R
QUAD CITIES    SUNNY     71  48  43 N12       30.15R

......ILLINOIS........

CITY           SKY/WX    TMP DP  RH WIND       PRES   REMARKS
QUINCY         PTSUNNY   70  58  65 N10       30.16R
CHICAGO        MOSUNNY   67  42  40 N16G26    30.09R



USA.gov is the U.S. government's official web portal to all federal, state and local government web resources and services.